[[{"header":{"parameterUnit":"m.s-1","parameterCategory":1,"la1":30.2991,"la2":30.254,"lo1":-89.0895,"lo2":-89.0444,"dy":0.0017,"dx":0.0017,"nx":28,"ny":28,"refTime":"2024-08-13T09:00:00:Z","depth":0,"parameterNumber":2,"parameterNumberName":"U-component_of_WINDS"},"data":[0,0,0,0,0,0,0,0,0,0,0,0,0,0,0,0,0,0,0,0,0,0,0,0,0,0,0,0,0,0,0,0,0,0,0,0,0,0,0,0,0,0,0,0,0,0,0,0,0,0,0,0,0,0,0,0,0,0,4.7162,4.7163,0,4.726,4.7261,4.7262,4.7168,4.7164,4.7161,4.7157,4.7258,4.7264,4.727,0,0,0,0,0,0,0,0,0,0,0,0,0,4.6895,4.6901,4.7162,4.7164,4.7165,4.726,4.7261,4.7262,4.7169,4.7164,4.716,4.7155,4.7256,4.7263,4.727,0,0,0,0,0,0,0,0,0,0,0,0,0,4.7004,4.6902,4.7162,4.7129,4.7127,4.7259,4.7261,4.7263,4.717,4.7164,4.7158,4.7153,4.7253,4.7262,4.7271,4.7441,0,0,4.73,4.7304,0,0,0,0,0,0,0,0,4.6998,4.7014,4.7133,4.7132,4.713,4.7196,4.7204,4.7323,4.7171,4.7154,4.7157,4.715,4.7242,4.7252,4.7282,4.7446,4.745,4.7301,4.7306,4.731,4.7313,0,0,0,0,0,0,0,4.6991,4.7009,4.7201,4.7135,4.7133,4.711,4.7119,4.7226,4.7228,4.7155,4.7148,4.7161,4.724,4.7274,4.7284,4.7451,4.73,4.7309,4.7314,4.7318,4.7758,4.7764,0,0,0,0,0,0,4.6986,4.7003,4.7198,4.7204,4.7049,4.7119,4.713,4.7181,4.7227,4.7228,4.7166,4.7156,4.7261,4.7273,4.7287,4.7488,4.731,4.7319,4.7324,4.7752,4.7759,4.7766,0,0,0,0,0,0,4.6981,4.7005,4.7194,4.7102,4.7124,4.713,4.7188,4.7185,4.7219,4.7235,4.7235,4.72,4.7257,4.7274,4.7403,4.749,4.7323,4.7331,4.7744,4.7754,4.7762,4.7891,0,0,0,0,0,0,4.6974,4.7003,4.7068,4.7104,4.713,4.7308,4.7193,4.7191,4.7235,4.7224,4.7267,4.7269,4.7254,4.739,4.7412,4.75,4.7339,4.7737,4.7749,4.776,4.7879,4.7903,4.7924,0,0,0,0,0,4.6965,4.71,4.7071,4.7095,4.721,4.7314,4.7328,4.7308,4.7242,4.7307,4.7317,4.7267,4.7477,4.7404,4.7428,4.752,4.7731,4.7745,4.7759,4.7869,4.7899,4.7924,0,0,0,0,0,0,4.7074,4.7104,4.7073,4.7224,4.7267,4.7297,4.7378,4.734,4.7403,4.739,4.7362,4.7373,4.7509,4.7527,4.7445,4.7686,4.7593,4.7613,4.7669,4.7697,4.772,4.7712,4.7346,0,0,0,0,0,4.7116,4.7198,4.722,4.7351,4.7374,4.7373,4.7417,4.7398,4.7441,4.7459,4.7479,4.7523,4.7598,4.7649,4.772,4.7881,4.7889,4.7956,4.7979,4.7998,4.8015,4.8101,4.8131,4.7811,4.7811,4.7811,0,0,4.7203,4.723,4.7283,4.7374,4.7405,4.749,4.7389,4.7483,4.7546,4.7473,4.7596,4.7612,4.766,4.7806,4.7871,4.7825,4.8105,4.8015,4.803,4.8037,4.8118,4.8148,4.8175,4.782,4.7819,4.7817,0,0,4.7405,4.7434,4.7546,4.7579,4.7627,4.7625,4.7653,4.7689,4.7697,4.7819,4.7767,4.7841,4.7972,4.8008,4.8043,4.8259,4.8215,4.8283,4.8401,4.8486,4.8511,4.8533,4.8609,4.8637,4.83,4.83,4.8301,0,4.7508,4.7633,4.7609,4.7707,4.7748,4.7687,4.78,4.7833,4.7902,4.7932,4.788,4.8043,4.8071,4.8224,4.8276,4.8307,4.8337,4.8278,4.8509,4.8531,4.8551,4.8624,4.8652,4.8308,4.8307,4.8306,4.8306,0,4.7756,4.7844,4.7929,4.7997,4.8048,4.8153,4.8145,4.82,4.8176,4.818,4.8306,4.8337,4.8412,4.8447,4.8425,4.8597,4.8567,4.8513,4.8419,4.859,4.8657,4.8685,4.8319,4.8317,4.8314,4.8312,0,0,4.803,4.8083,4.8114,4.8144,4.8192,4.826,4.8362,4.8436,4.8483,4.8532,4.8617,4.873,4.8679,4.872,4.8701,4.8776,4.8943,4.8712,4.8712,4.8753,4.9134,4.9174,4.9206,4.8915,4.892,4.8924,4.9129,0,4.8233,4.841,4.8391,4.8561,4.8641,4.8584,4.8673,4.8712,4.8719,4.8788,4.8795,4.8875,4.8803,4.8827,4.8898,4.8908,4.9019,4.8893,4.8993,4.8997,4.8982,4.9242,4.9284,4.9477,4.9156,4.916,4.9164,0,4.8493,4.8552,4.8729,4.8764,4.8797,4.8878,4.8943,4.901,4.9054,4.9053,4.9098,4.9067,4.917,4.9075,4.9216,4.913,4.917,4.9182,4.9189,4.9196,4.909,4.9256,4.9537,4.9566,4.9205,4.9202,4.9199,0,4.8674,4.8797,4.8918,4.8946,4.899,4.9048,4.9069,4.9107,4.9152,4.921,4.9239,4.9308,4.9346,4.94,4.9388,4.932,4.9532,4.9436,4.9534,4.9534,4.958,4.9577,4.9872,4.9608,4.9608,4.9607,4.9607,0,4.8902,4.9013,4.9,4.9075,4.9197,4.9174,4.9295,4.931,4.9344,4.942,4.9375,4.9448,4.9428,4.95,4.9492,4.9609,4.9627,4.9629,4.9625,4.9633,4.9632,4.9657,4.9643,4.9615,4.9613,4.9612,4.961,0,4.9124,4.9121,4.9249,4.9281,4.9291,4.938,4.9406,4.9477,4.9479,4.9577,4.9598,4.9603,4.9685,4.9679,4.9772,4.9766,4.9911,4.9892,4.9896,4.9892,4.9989,4.998,5.0309,5.0351,5.0062,5.0064,5.0067,0,4.927,4.9353,4.9394,4.9441,4.9466,4.9544,4.9589,4.9571,4.962,4.9675,4.9739,4.9817,4.9878,5.0013,5.0024,5.0095,5.0076,5.0187,5.0087,5.0091,5.0077,5.0072,5.0079,5.0207,5.021,5.0213,5.0215,0,4.9528,4.9522,4.9589,4.9656,4.9712,4.9764,4.9811,4.9853,4.9839,4.9897,4.998,5.0027,5.0122,5.02,5.0267,5.0288,5.025,5.0246,5.0272,5.028,5.0279,5.028,4.9949,5.0239,5.0236,5.0235,5.0233,5.0232,4.9715,4.9787,4.9826,4.9902,4.9936,4.9981,5.0048,5.0059,5.0128,5.0203,5.0188,5.0281,5.0322,5.0408,5.0436,5.0509,5.0469,5.0507,5.0517,5.0526,5.0537,5.0268,5.0521,5.0521,5.052,5.052,5.0519,0,4.997,4.9993,5.0063,5.013,5.0191,5.0148,5.0198,5.0251,5.0334,5.0375,5.0436,5.0532,5.0607,5.0624,5.0696,5.0751,5.0735,5.0771,5.0766,5.0771,5.0569,5.0539,5.0782,5.0782,5.0782,5.0782,5.0782,5.0782,5.011,5.0228,5.0226,5.036,5.0381,5.0472,5.0504,5.0546,5.0578,5.0686,5.0748,5.0759,5.0791,5.0864,5.0931,5.0934,5.0963,5.1005,5.1001,5.0812,5.0786,5.076,5.0732,5.1012,5.1012,5.1197,5.1199,5.12]},{"header":{"parameterUnit":"m.s-1","parameterCategory":1,"la1":30.2991,"la2":30.254,"lo1":-89.0895,"lo2":-89.0444,"dy":0.0017,"dx":0.0017,"nx":28,"ny":28,"refTime":"2024-08-13T09:00:00:Z","depth":0,"parameterNumber":3,"parameterNumberName":"V-component_of_WINDS"},"data":[0,0,0,0,0,0,0,0,0,0,0,0,0,0,0,0,0,0,0,0,0,0,0,0,0,0,0,0,0,0,0,0,0,0,0,0,0,0,0,0,0,0,0,0,0,0,0,0,0,0,0,0,0,0,0,0,0,0,0.1609,0.1609,0,0.1666,0.1667,0.1667,0.1677,0.1676,0.1676,0.1675,0.1737,0.1739,0.1741,0,0,0,0,0,0,0,0,0,0,0,0,0,0.1508,0.151,0.1608,0.1609,0.161,0.1666,0.1667,0.1668,0.1677,0.1676,0.1676,0.1675,0.1736,0.1739,0.1741,0,0,0,0,0,0,0,0,0,0,0,0,0,0.1558,0.1511,0.1608,0.1621,0.1623,0.1666,0.1667,0.1668,0.1677,0.1676,0.1676,0.1675,0.1735,0.1738,0.1742,0.1776,0,0,0.1751,0.1753,0,0,0,0,0,0,0,0,0.1555,0.1561,0.1619,0.162,0.1622,0.1663,0.1654,0.1704,0.1677,0.1657,0.1675,0.1674,0.1713,0.1718,0.1731,0.1779,0.1782,0.1752,0.1753,0.1755,0.1756,0,0,0,0,0,0,0,0.1551,0.1559,0.1631,0.1619,0.1622,0.1625,0.1631,0.1664,0.1689,0.1658,0.1659,0.1666,0.1714,0.1728,0.1732,0.1783,0.1751,0.1754,0.1756,0.1757,0.1862,0.1863,0,0,0,0,0,0,0.1545,0.1556,0.163,0.1633,0.1586,0.1627,0.1634,0.1651,0.1688,0.1693,0.1666,0.1666,0.1723,0.1729,0.1734,0.1778,0.1755,0.1758,0.176,0.1861,0.1862,0.1863,0,0,0,0,0,0,0.1543,0.1552,0.1627,0.1595,0.1605,0.163,0.1649,0.1653,0.1666,0.1694,0.1699,0.1675,0.1722,0.173,0.1766,0.178,0.1759,0.1762,0.186,0.1862,0.1863,0.1864,0,0,0,0,0,0,0.154,0.1551,0.1564,0.1595,0.1606,0.1657,0.165,0.1654,0.1671,0.1671,0.1704,0.1709,0.1722,0.1761,0.1769,0.1784,0.1765,0.1859,0.1861,0.1862,0.1863,0.1865,0.1867,0,0,0,0,0,0.1537,0.1563,0.1565,0.1574,0.1623,0.1658,0.1664,0.1679,0.1672,0.1686,0.1704,0.1708,0.1777,0.1764,0.1773,0.179,0.1858,0.186,0.1862,0.1862,0.1865,0.1867,0,0,0,0,0,0,0.1534,0.1567,0.157,0.1606,0.1629,0.1659,0.1677,0.1681,0.1707,0.1706,0.1723,0.1731,0.1765,0.1781,0.1767,0.1825,0.1817,0.1821,0.1814,0.1817,0.1819,0.1815,0.1767,0,0,0,0,0,0.1538,0.1562,0.159,0.162,0.1631,0.1652,0.1667,0.1676,0.1701,0.1711,0.1731,0.1756,0.1783,0.18,0.1827,0.1865,0.1872,0.188,0.1882,0.1884,0.1888,0.1909,0.1913,0.187,0.187,0.187,0,0,0.1546,0.1567,0.1581,0.162,0.1638,0.1664,0.166,0.1688,0.1707,0.1715,0.175,0.1766,0.1794,0.1831,0.1848,0.1845,0.1901,0.1887,0.1888,0.1891,0.1911,0.1915,0.1919,0.1871,0.1871,0.1871,0,0,0.1573,0.1591,0.1618,0.1637,0.1664,0.1678,0.1684,0.1713,0.1724,0.1759,0.1765,0.1789,0.1835,0.1855,0.1871,0.1905,0.191,0.1913,0.1925,0.1945,0.1949,0.1952,0.1964,0.1968,0.1916,0.1916,0.1916,0,0.158,0.1619,0.1632,0.1659,0.1675,0.1683,0.171,0.1728,0.1763,0.1775,0.177,0.1828,0.1848,0.1889,0.1897,0.191,0.1918,0.191,0.1947,0.195,0.1953,0.1965,0.197,0.1917,0.1917,0.1917,0.1917,0,0.1626,0.1652,0.167,0.1703,0.1722,0.1749,0.1767,0.1784,0.1791,0.1805,0.184,0.1864,0.1895,0.1905,0.1913,0.1948,0.1945,0.1943,0.1936,0.1958,0.1969,0.1974,0.1917,0.1917,0.1917,0.1917,0,0,0.1655,0.1693,0.17,0.1715,0.1745,0.1766,0.1794,0.1823,0.1838,0.1862,0.1885,0.1924,0.1923,0.1941,0.195,0.1968,0.1993,0.1965,0.1966,0.197,0.2033,0.2035,0.204,0.1996,0.1997,0.1998,0.2031,0,0.1686,0.1735,0.1747,0.1788,0.1813,0.182,0.1844,0.1865,0.1879,0.1902,0.1917,0.1944,0.1941,0.1952,0.1969,0.1987,0.2007,0.1984,0.2019,0.202,0.2012,0.2046,0.2047,0.2078,0.2036,0.2037,0.2037,0,0.173,0.1754,0.1798,0.1824,0.1835,0.1856,0.1884,0.1906,0.1931,0.1939,0.1959,0.1966,0.1995,0.1985,0.2026,0.201,0.2025,0.2036,0.2037,0.2042,0.2031,0.2052,0.2088,0.2093,0.2044,0.2044,0.2043,0,0.1748,0.179,0.1822,0.1834,0.1866,0.1881,0.1895,0.1919,0.1935,0.196,0.1971,0.1998,0.2014,0.2035,0.205,0.2041,0.2089,0.2081,0.2098,0.2098,0.2109,0.2108,0.2148,0.2117,0.2117,0.2117,0.2117,0,0.1782,0.1809,0.183,0.185,0.1879,0.1893,0.1922,0.1937,0.1958,0.198,0.1988,0.2009,0.2027,0.2051,0.2063,0.2094,0.2101,0.2109,0.2113,0.2109,0.2108,0.212,0.2118,0.2118,0.2118,0.2117,0.2117,0,0.1807,0.1822,0.1857,0.1884,0.1891,0.1912,0.1936,0.1955,0.1968,0.1997,0.2004,0.2025,0.2054,0.207,0.2106,0.2114,0.2149,0.2151,0.2141,0.2143,0.2159,0.2157,0.2209,0.2216,0.2179,0.218,0.218,0,0.1829,0.1849,0.1878,0.1893,0.1907,0.1932,0.1949,0.1963,0.198,0.2009,0.2025,0.2053,0.2077,0.2122,0.2141,0.2168,0.2171,0.2187,0.2175,0.2171,0.2172,0.217,0.2173,0.2189,0.219,0.219,0.219,0,0.1866,0.1872,0.1895,0.1921,0.1941,0.1962,0.1983,0.1996,0.2013,0.2032,0.2061,0.2079,0.2115,0.2143,0.2172,0.2187,0.2192,0.2193,0.2199,0.2196,0.219,0.2194,0.2147,0.2192,0.2192,0.2192,0.2192,0.2192,0.189,0.1908,0.1931,0.1957,0.1974,0.1993,0.2013,0.2028,0.2052,0.2081,0.2088,0.2118,0.2142,0.2181,0.2196,0.222,0.2218,0.2225,0.2228,0.2229,0.223,0.2185,0.2225,0.2225,0.2225,0.2225,0.2225,0,0.1927,0.1942,0.1965,0.1994,0.2015,0.2016,0.2039,0.2056,0.2082,0.2104,0.2126,0.2159,0.2186,0.2206,0.2234,0.2249,0.2252,0.2256,0.2256,0.2259,0.2231,0.2223,0.2254,0.2254,0.2253,0.2253,0.2253,0.2253,0.1949,0.198,0.1989,0.2028,0.2043,0.2072,0.2085,0.2103,0.212,0.2156,0.2178,0.2191,0.2212,0.2241,0.2266,0.2271,0.2281,0.2285,0.2291,0.2264,0.2261,0.2258,0.2251,0.2287,0.2287,0.2317,0.2318,0.2318]}]]